[[{"header":{"parameterUnit":"m.s-1","parameterCategory":1,"la1":30.2991,"la2":30.254,"lo1":-89.0895,"lo2":-89.0444,"dy":0.0017,"dx":0.0017,"nx":28,"ny":28,"refTime":"2025-01-07T09:00:00:Z","depth":0,"parameterNumber":2,"parameterNumberName":"U-component_of_WINDS"},"data":[0,0,0,0,0,0,0,0,0,0,0,0,0,0,0,0,0,0,0,0,0,0,0,0,0,0,0,0,0,0,0,0,0,0,0,0,0,0,0,0,0,0,0,0,0,0,0,0,0,0,0,0,0,0,0,0,0,0,0.7803,0.7803,0,0.7733,0.7733,0.7732,0.7731,0.7732,0.7733,0.7734,0.7659,0.7656,0.7653,0,0,0,0,0,0,0,0,0,0,0,0,0,0.7934,0.7931,0.7804,0.7803,0.7802,0.7734,0.7733,0.7732,0.7731,0.7732,0.7733,0.7734,0.7659,0.7656,0.7653,0,0,0,0,0,0,0,0,0,0,0,0,0,0.7872,0.7931,0.7804,0.7793,0.7792,0.7734,0.7733,0.7731,0.7731,0.7732,0.7733,0.7735,0.7661,0.7656,0.7652,0.7599,0,0,0.7639,0.7637,0,0,0,0,0,0,0,0,0.7875,0.7867,0.7796,0.7794,0.7792,0.7742,0.7751,0.7687,0.773,0.7754,0.7734,0.7735,0.7685,0.7679,0.7663,0.7596,0.7592,0.7639,0.7636,0.7634,0.7633,0,0,0,0,0,0,0,0.788,0.787,0.7776,0.7795,0.7792,0.7791,0.7784,0.7739,0.7713,0.7752,0.7752,0.7743,0.7684,0.7667,0.7661,0.7591,0.7639,0.7635,0.7633,0.7631,0.7477,0.7475,0,0,0,0,0,0,0.7886,0.7874,0.7778,0.7774,0.7838,0.7788,0.778,0.7757,0.7713,0.7708,0.7742,0.7744,0.7673,0.7666,0.7658,0.7592,0.7635,0.7631,0.7628,0.7478,0.7476,0.7475,0,0,0,0,0,0,0.7889,0.7878,0.7781,0.7824,0.7811,0.7784,0.7759,0.7755,0.7737,0.7706,0.7701,0.7729,0.7674,0.7664,0.7614,0.759,0.7629,0.7625,0.748,0.7478,0.7476,0.7461,0,0,0,0,0,0,0.7893,0.7879,0.7859,0.7823,0.7809,0.7738,0.7757,0.7752,0.773,0.7731,0.7693,0.7687,0.7675,0.762,0.761,0.7585,0.7621,0.7482,0.7479,0.7476,0.7463,0.7458,0.7454,0,0,0,0,0,0.7898,0.7857,0.7858,0.7846,0.7783,0.7737,0.7728,0.7715,0.7729,0.7708,0.7688,0.7689,0.7595,0.7615,0.7603,0.7577,0.7483,0.748,0.7477,0.7465,0.7459,0.7454,0,0,0,0,0,0,0.7889,0.7852,0.7853,0.7799,0.7771,0.7737,0.771,0.7709,0.7676,0.7678,0.7663,0.7654,0.7604,0.7585,0.7609,0.7523,0.7541,0.7535,0.7536,0.753,0.7525,0.753,0.7618,0,0,0,0,0,0.7881,0.7847,0.7817,0.7772,0.7759,0.7737,0.7716,0.7709,0.7679,0.7666,0.7643,0.7613,0.7576,0.7553,0.7518,0.7462,0.7452,0.7437,0.7433,0.7429,0.7423,0.7391,0.7384,0.7463,0.7463,0.7463,0,0,0.7864,0.784,0.7819,0.777,0.7748,0.7712,0.7727,0.7688,0.7661,0.766,0.7611,0.7593,0.7558,0.7505,0.748,0.7488,0.74,0.7425,0.7422,0.7418,0.7387,0.738,0.7373,0.7461,0.7461,0.7462,0,0,0.7814,0.7793,0.7753,0.7731,0.7697,0.7684,0.7674,0.764,0.7628,0.7579,0.7577,0.7545,0.7483,0.7458,0.7438,0.738,0.7379,0.737,0.7344,0.7313,0.7307,0.7301,0.7279,0.7272,0.7364,0.7364,0.7364,0,0.7796,0.7743,0.7733,0.7695,0.7673,0.7672,0.7631,0.761,0.7566,0.755,0.7561,0.7483,0.746,0.74,0.7386,0.737,0.7358,0.7372,0.7309,0.7303,0.7298,0.7277,0.7269,0.7363,0.7363,0.7363,0.7364,0,0.7723,0.7686,0.7658,0.7617,0.7593,0.7553,0.7536,0.7512,0.7508,0.7492,0.7442,0.7415,0.7374,0.736,0.7355,0.7299,0.7305,0.7313,0.733,0.7289,0.7269,0.7261,0.7362,0.7362,0.7362,0.7363,0,0,0.7663,0.7618,0.7608,0.7589,0.7552,0.7523,0.7484,0.7446,0.7425,0.7395,0.7361,0.7309,0.7316,0.7293,0.7285,0.7258,0.7213,0.7269,0.7268,0.7258,0.7149,0.7142,0.7133,0.7214,0.7212,0.7211,0.7152,0,0.7608,0.7538,0.7528,0.7467,0.7432,0.7432,0.7398,0.7371,0.7357,0.7325,0.7308,0.7271,0.7284,0.727,0.7244,0.7224,0.7191,0.7229,0.718,0.7178,0.7186,0.7123,0.7115,0.706,0.7144,0.7142,0.7141,0,0.7533,0.7503,0.7438,0.7407,0.7392,0.7361,0.7325,0.7295,0.7265,0.7256,0.7231,0.7227,0.7185,0.7206,0.7148,0.7174,0.7154,0.7142,0.7139,0.7132,0.7156,0.7112,0.7043,0.7034,0.7129,0.713,0.7131,0,0.7494,0.7437,0.7391,0.7375,0.7337,0.7316,0.7299,0.7271,0.7248,0.7217,0.7202,0.7165,0.7145,0.7117,0.7103,0.712,0.7045,0.7065,0.7035,0.7035,0.7017,0.7018,0.6942,0.7008,0.7008,0.7008,0.7009,0,0.7432,0.7392,0.7372,0.7344,0.7299,0.7288,0.7244,0.7227,0.7202,0.717,0.7168,0.7137,0.7122,0.7088,0.7077,0.703,0.7022,0.7012,0.7009,0.7011,0.7012,0.6996,0.6998,0.7006,0.7007,0.7007,0.7007,0,0.7379,0.7365,0.7314,0.7284,0.7275,0.7243,0.7216,0.7188,0.7175,0.7134,0.7123,0.7102,0.7063,0.7047,0.6998,0.6991,0.6936,0.6937,0.6946,0.6945,0.6915,0.6917,0.6824,0.681,0.6888,0.6887,0.6886,0,0.7339,0.7309,0.7275,0.7254,0.7237,0.7202,0.718,0.7169,0.7145,0.7109,0.7085,0.7046,0.7015,0.6952,0.6931,0.6895,0.6894,0.6863,0.6888,0.689,0.6891,0.6892,0.6888,0.6858,0.6857,0.6857,0.6856,0,0.727,0.7264,0.7232,0.7198,0.7171,0.7143,0.7116,0.7099,0.7083,0.7057,0.7017,0.6993,0.6945,0.6906,0.6868,0.685,0.685,0.6849,0.684,0.684,0.6846,0.684,0.6932,0.685,0.6851,0.6851,0.6852,0.6852,0.7221,0.7193,0.7166,0.713,0.7109,0.7084,0.7055,0.7039,0.7006,0.6967,0.6962,0.692,0.6891,0.6841,0.6821,0.6787,0.6795,0.6782,0.6778,0.6774,0.6772,0.6854,0.6781,0.6781,0.6781,0.6781,0.6781,0,0.7149,0.7132,0.7099,0.7062,0.7034,0.7039,0.7009,0.6984,0.6947,0.6921,0.6891,0.6845,0.6808,0.6785,0.6748,0.6725,0.6724,0.6715,0.6715,0.6711,0.6768,0.6779,0.6717,0.6717,0.6717,0.6717,0.6717,0.6717,0.7108,0.7062,0.7054,0.6997,0.6979,0.6938,0.6921,0.6897,0.6876,0.6826,0.6796,0.6782,0.6757,0.6717,0.6683,0.6678,0.6663,0.6653,0.6648,0.6701,0.6707,0.6713,0.6723,0.6651,0.6651,0.6593,0.6593,0.6592]},{"header":{"parameterUnit":"m.s-1","parameterCategory":1,"la1":30.2991,"la2":30.254,"lo1":-89.0895,"lo2":-89.0444,"dy":0.0017,"dx":0.0017,"nx":28,"ny":28,"refTime":"2025-01-07T09:00:00:Z","depth":0,"parameterNumber":3,"parameterNumberName":"V-component_of_WINDS"},"data":[0,0,0,0,0,0,0,0,0,0,0,0,0,0,0,0,0,0,0,0,0,0,0,0,0,0,0,0,0,0,0,0,0,0,0,0,0,0,0,0,0,0,0,0,0,0,0,0,0,0,0,0,0,0,0,0,0,0,-6.4949,-6.4951,0,-6.5143,-6.5145,-6.5147,-6.5087,-6.5083,-6.5079,-6.5075,-6.5271,-6.5279,-6.5288,0,0,0,0,0,0,0,0,0,0,0,0,0,-6.4524,-6.4532,-6.4949,-6.4952,-6.4954,-6.5143,-6.5145,-6.5148,-6.5088,-6.5083,-6.5078,-6.5073,-6.5268,-6.5278,-6.5289,0,0,0,0,0,0,0,0,0,0,0,0,0,-6.4712,-6.4534,-6.4949,-6.4947,-6.4949,-6.5142,-6.5145,-6.5149,-6.5089,-6.5083,-6.5077,-6.5071,-6.5264,-6.5277,-6.5291,-6.5497,0,0,-6.5332,-6.5338,0,0,0,0,0,0,0,0,-6.4701,-6.4728,-6.4945,-6.4947,-6.495,-6.5085,-6.5067,-6.5265,-6.509,-6.5036,-6.5075,-6.5068,-6.5213,-6.5231,-6.528,-6.5506,-6.5514,-6.5333,-6.5341,-6.5347,-6.5351,0,0,0,0,0,0,0,-6.4688,-6.4719,-6.5026,-6.4948,-6.4951,-6.4935,-6.4955,-6.5104,-6.5156,-6.504,-6.5036,-6.506,-6.5214,-6.5268,-6.5285,-6.5517,-6.5333,-6.5345,-6.5353,-6.5358,-6.5919,-6.5926,0,0,0,0,0,0,-6.4674,-6.4708,-6.5019,-6.5031,-6.4808,-6.4948,-6.497,-6.5047,-6.5155,-6.5165,-6.5065,-6.5056,-6.5247,-6.5269,-6.5291,-6.5539,-6.5347,-6.536,-6.5367,-6.5913,-6.5921,-6.5928,0,0,0,0,0,0,-6.4665,-6.4702,-6.5012,-6.4869,-6.4907,-6.4962,-6.5049,-6.5054,-6.5108,-6.5174,-6.5182,-6.5111,-6.5244,-6.5272,-6.5446,-6.5545,-6.5366,-6.5378,-6.5905,-6.5915,-6.5925,-6.6037,0,0,0,0,0,0,-6.4653,-6.47,-6.478,-6.4871,-6.4915,-6.5165,-6.5055,-6.5063,-6.5132,-6.5123,-6.5219,-6.5229,-6.5241,-6.5426,-6.5459,-6.556,-6.5389,-6.5896,-6.5909,-6.5921,-6.6024,-6.6049,-6.6071,0,0,0,0,0,-6.4638,-6.4803,-6.4784,-6.4822,-6.5016,-6.5171,-6.5195,-6.5207,-6.5141,-6.5221,-6.5262,-6.5226,-6.5529,-6.5444,-6.5481,-6.5588,-6.589,-6.5906,-6.592,-6.6014,-6.6044,-6.607,0,0,0,0,0,0,-6.4721,-6.4815,-6.4795,-6.4995,-6.5075,-6.516,-6.5262,-6.5239,-6.5339,-6.5326,-6.5335,-6.5357,-6.5535,-6.5579,-6.5483,-6.5792,-6.5699,-6.5723,-6.5758,-6.5787,-6.581,-6.5796,-6.54,0,0,0,0,0,-6.4763,-6.4881,-6.4956,-6.5125,-6.5167,-6.5207,-6.5275,-6.5277,-6.536,-6.5394,-6.5448,-6.5529,-6.5642,-6.5717,-6.5825,-6.603,-6.6049,-6.6121,-6.6144,-6.6163,-6.6183,-6.6294,-6.6326,-6.5978,-6.5978,-6.5978,0,0,-6.485,-6.4916,-6.499,-6.5143,-6.5206,-6.5327,-6.5237,-6.5369,-6.5459,-6.5413,-6.5581,-6.5624,-6.5715,-6.5905,-6.5991,-6.5946,-6.6283,-6.6182,-6.6197,-6.6207,-6.6313,-6.6346,-6.6375,-6.5989,-6.5987,-6.5985,0,0,-6.507,-6.5132,-6.528,-6.5344,-6.544,-6.5466,-6.5501,-6.559,-6.5616,-6.5785,-6.5753,-6.5859,-6.6054,-6.612,-6.6179,-6.6423,-6.6393,-6.6458,-6.658,-6.6687,-6.6715,-6.6739,-6.6825,-6.6857,-6.6478,-6.6478,-6.6478,0,-6.5166,-6.5349,-6.5358,-6.5493,-6.5561,-6.5526,-6.5674,-6.5736,-6.5862,-6.5909,-6.5857,-6.6101,-6.616,-6.6364,-6.6424,-6.6473,-6.6512,-6.6448,-6.671,-6.6735,-6.6757,-6.684,-6.6873,-6.6485,-6.6485,-6.6484,-6.6483,0,-6.5462,-6.5589,-6.5696,-6.5819,-6.5899,-6.604,-6.6069,-6.6148,-6.6142,-6.6173,-6.6344,-6.6413,-6.6534,-6.6583,-6.6578,-6.6787,-6.6756,-6.6707,-6.6614,-6.6798,-6.6875,-6.6907,-6.6496,-6.6493,-6.6491,-6.6489,0,0,-6.5741,-6.5867,-6.5906,-6.5961,-6.6064,-6.6161,-6.63,-6.6419,-6.6486,-6.6574,-6.669,-6.6855,-6.681,-6.6878,-6.688,-6.6974,-6.7162,-6.6914,-6.6916,-6.6957,-6.7395,-6.7431,-6.7468,-6.7142,-6.7148,-6.7153,-6.7387,0,-6.597,-6.6216,-6.6227,-6.6449,-6.6566,-6.6533,-6.6654,-6.6729,-6.6761,-6.6863,-6.6898,-6.7015,-6.6948,-6.6988,-6.708,-6.712,-6.725,-6.7103,-6.7249,-6.7255,-6.7228,-6.7509,-6.7548,-6.7765,-6.7418,-6.7423,-6.7427,0,-6.6271,-6.6369,-6.6603,-6.6688,-6.6737,-6.6846,-6.6955,-6.7054,-6.7137,-6.7154,-6.7228,-6.7217,-6.7357,-6.7258,-6.7451,-6.7351,-6.7411,-6.7439,-6.7448,-6.7463,-6.7352,-6.7531,-6.7835,-6.7868,-6.7475,-6.7471,-6.7467,0,-6.6451,-6.6641,-6.6805,-6.6853,-6.6957,-6.7033,-6.708,-6.7158,-6.7228,-6.7323,-6.7368,-6.7478,-6.7538,-6.7622,-6.764,-6.7567,-6.7832,-6.7736,-6.7849,-6.7849,-6.7907,-6.7904,-6.8226,-6.7946,-6.7945,-6.7945,-6.7944,0,-6.6707,-6.6851,-6.6888,-6.6989,-6.7149,-6.716,-6.7318,-6.7359,-6.7428,-6.7535,-6.7513,-6.7614,-6.7631,-6.7736,-6.775,-6.7907,-6.7934,-6.795,-6.7953,-6.7953,-6.7951,-6.7993,-6.7978,-6.7953,-6.7951,-6.795,-6.7948,0,-6.6936,-6.6966,-6.7143,-6.7226,-6.725,-6.7365,-6.7435,-6.7531,-6.756,-6.7696,-6.7728,-6.7774,-6.7895,-6.7921,-6.8065,-6.8074,-6.8261,-6.8248,-6.8233,-6.8232,-6.8344,-6.8334,-6.8705,-6.8754,-6.8442,-6.8445,-6.8447,0,-6.7097,-6.7207,-6.7302,-6.7373,-6.7423,-6.7537,-6.7609,-6.7622,-6.7698,-6.7801,-6.7884,-6.8004,-6.81,-6.8296,-6.834,-6.845,-6.844,-6.8562,-6.8456,-6.8453,-6.8442,-6.8435,-6.8446,-6.8583,-6.8586,-6.8589,-6.8591,0,-6.7379,-6.7389,-6.7493,-6.7603,-6.7689,-6.7777,-6.7859,-6.7918,-6.7943,-6.8028,-6.8153,-6.8227,-6.8374,-6.8493,-6.8602,-6.8648,-6.8624,-6.8624,-6.8656,-6.8658,-6.8645,-6.8653,-6.8289,-6.8616,-6.8613,-6.8611,-6.861,-6.8609,-6.758,-6.7676,-6.7757,-6.7874,-6.7938,-6.8015,-6.811,-6.815,-6.8255,-6.8376,-6.8377,-6.8513,-6.8592,-6.8737,-6.8789,-6.8895,-6.8856,-6.8903,-6.8915,-6.8926,-6.8937,-6.8628,-6.8915,-6.8914,-6.8913,-6.8913,-6.8912,0,-6.7861,-6.7911,-6.8019,-6.8135,-6.8227,-6.8196,-6.8286,-6.8364,-6.8484,-6.8561,-6.8656,-6.8798,-6.8912,-6.8966,-6.9078,-6.9153,-6.9144,-6.9182,-6.9177,-6.9187,-6.8965,-6.8926,-6.9186,-6.9186,-6.9186,-6.9186,-6.9186,-6.9186,-6.8018,-6.818,-6.8198,-6.839,-6.8439,-6.8573,-6.8626,-6.8697,-6.8758,-6.8918,-6.9014,-6.9048,-6.9114,-6.9231,-6.9334,-6.9347,-6.9389,-6.9432,-6.944,-6.9231,-6.9203,-6.9177,-6.914,-6.9442,-6.9442,-6.9654,-6.9656,-6.9657]}]]